Weather Roundup
Issued by NWS Chicago, IL

Home | Current Version | Previous Version | Text Only | Print | Product List | Glossary On
Versions: 1 2 3 4 5 6 7 8 9 10 11 12 13 14 15 16 17 18 19 20 21 22 23 24 25 26 27 28 29 30 31 32 33 34 35 36 37 38 39 40 41 42 43 44 45 46 47 48 49 50
000
NZUS59 KLOT 241610
HRRLOT

CHICAGO AREA WEATHER ROUNDUP
NATIONAL WEATHER SERVICE CHICAGO/ROMEOVILLE IL
1100 AM CDT FRI OCT 24 2014

NOTE: "FAIR" INDICATES FEW OR NO CLOUDS BELOW 12,000 FEET WITH NO
SIGNIFICANT WEATHER AND/OR OBSTRUCTIONS TO VISIBILITY.

* THESE STATIONS ARE NOT UNDER NWS QUALITY CONTROL. THEY ALSO MAY NOT
  REPORT WEATHER SUCH AS PRECIPITATION OR FOG.

ILZ005-006-012>014-019>023-241700-
NORTHEAST ILLINOIS

CITY           SKY/WX    TMP DP  RH WIND       PRES   REMARKS
OHARE          PTSUNNY   58  47  66 VRB6      30.05F
MIDWAY         PTSUNNY   60  49  66 NW6       30.06S
AURORA         MOSUNNY   58  48  69 CALM      30.06F
LANSING*       SUNNY     59  49  71 W3        30.06F
JOLIET*        SUNNY     58  49  71 W3        30.07F
WAUKEGAN       CLOUDY    52  49  89 CALM      30.05F FOG
DUPAGE AIRPORT MOSUNNY   60  48  64 S3        30.05F
WHEELING       MOSUNNY   60  49  66 VRB5      30.07F
MORRIS*        MOSUNNY   58  51  79 SW5       30.06F
LEWIS AIRPORT* SUNNY     58  47  69 W3        30.06F
NORTHERLY IS     N/A     59  47  64 SW3         N/A
$$

WIZ051-052-058>065-066-070>072-241700-
SOUTHEAST WISCONSIN

CITY           SKY/WX    TMP DP  RH WIND       PRES   REMARKS
MILWAUKEE      CLOUDY    51  48  89 W7        30.05F
KENOSHA*       CLOUDY    51  50  96 SW5       30.05F FOG
RACINE*        CLOUDY    53  49  86 W6        30.06F
WAUKESHA       CLOUDY    48  46  93 W5        30.05F FOG
WEST BEND      CLOUDY    50  45  81 CALM      30.03F
$$

INZ001>003-010>013-019-020-241700-
NORTHWEST INDIANA

CITY           SKY/WX    TMP DP  RH WIND       PRES   REMARKS
GARY*          PTSUNNY   59  48  67 CALM      30.07S
MICHIGAN CITY* NOT AVBL
RENSSELAER*    NOT AVBL
VALPARAISO     MOSUNNY   57  47  69 SW5       30.07F
$$

LMZ740>746-241700-
SOUTHERN LAKE MICHIGAN

STATION/POSITION TIME  SKY/WX   TEMP WIND        PRES    VSBY
                                AIR  DIR/SP/G
                 (UTC)          (F)  (DEG/KT/KT) (MB)    (MI)
HARRISON CRIB    1500            56  170/  2/  2   N/A
BURNHAM HARBOR   1600            59  280/  4/  6   N/A
CALUMET HARBOR   1600            58  190/  3/  5 1016.8S
BURNS HARBOR     NOT AVBL
MICHIGAN CITY    1600            55  240/  3/  4   N/A
$$

ABBREVIATIONS USED IN REMARKS
   TC - TEMPERATURE IN CELSIUS
  WCI - WIND CHILL INDEX
   HX - HEAT INDEX
  VSB - VISIBILITY
$$



USA.gov is the U.S. government's official web portal to all federal, state and local government web resources and services.